Weather History for Scarborough, Trinidad And Tobago

Change the Weather History Date:

Friday, June 28, 2013

  Actual Average Record
Temperature  
Mean Temperature 80 °F -  
Max Temperature 84 °F 84 °F 87 °F (1998)
Min Temperature 75 °F 76 °F 73 °F (2006)
Cooling Degree Days 14    
Growing Degree Days 30 (Base 50)    
Moisture  
Dew Point 72 °F    
Average Humidity 78    
Maximum Humidity 94    
Minimum Humidity 65    
Precipitation  
Precipitation 0.00 in - - ()
Sea Level Pressure  
Sea Level Pressure 29.93 in    
Wind  
Wind Speed 5 mph ()    
Max Wind Speed 14 mph    
Max Gust Speed -    
Visibility 5.9 miles    
Events Rain , Thunderstorm    
Averages and records for this station are not official NWS values.
T = Trace of Precipitation, MM = Missing Value Source: Averaged Metar Reports

Daily Weather History Graph

Daily Weather History Graph

Search for Another Location

Airport:

Trip Planner

Search our weather history database for the weather conditions in past years. The results will help you decide how hot, cold, wet, or windy it might be!

Date:

Astronomy

Jun. 28, 2013 Rise Set
Actual Time 5:43 AM AST 6:29 PM AST
Civil Twilight 5:20 AM AST 6:53 PM AST
Nautical Twilight 4:53 AM AST 7:20 PM AST
Astronomical Twilight 4:25 AM AST 7:47 PM AST
Moon 11:06 PM AST 10:41 AM AST
Length of Visible Light 13h 32m
Length of Day
12h 46m
Waning Gibbous, 66% of the Moon is Illuminated
Jun 28
Waning Gibbous
Jun 30
Last Quarter
Jul 8
New
Jul 15
First Quarter
Jul 22
Full

Hourly Weather History & Observations

Time (AST) Temp. Heat Index Dew Point Humidity Pressure Visibility Wind Dir Wind Speed Gust Speed Precip Events Conditions
12:00 AM 78.8 °F - 71.6 °F 78% 29.98 in 6.2 mi ENE 5.8 mph - N/A   Partly Cloudy
1:00 AM 78.8 °F - 71.6 °F 78% 29.95 in 6.2 mi NE 3.5 mph - N/A   Partly Cloudy
2:00 AM 78.8 °F - 73.4 °F 83% 29.95 in 6.2 mi Calm Calm - N/A   Partly Cloudy
5:00 AM 77.0 °F - 69.8 °F 78% 29.92 in 6.2 mi Calm Calm - N/A   Partly Cloudy
6:00 AM 77.0 °F - 69.8 °F 78% 29.95 in 6.2 mi NE 4.6 mph - N/A   Partly Cloudy
7:00 AM 80.6 °F 83.9 °F 69.8 °F 70% 29.95 in 6.2 mi ENE 5.8 mph - N/A   Partly Cloudy
8:00 AM 82.4 °F 87.2 °F 71.6 °F 70% 29.98 in 6.2 mi ENE 8.1 mph - N/A   Scattered Clouds
9:00 AM 80.6 °F 83.2 °F 68.0 °F 65% 29.98 in 6.2 mi NE 9.2 mph - N/A   Partly Cloudy
10:00 AM 84.2 °F 90.9 °F 73.4 °F 70% 29.98 in 6.2 mi NNE 11.5 mph - N/A   Scattered Clouds
11:00 AM 84.2 °F 90.9 °F 73.4 °F 70% 29.95 in 6.2 mi NE 11.5 mph - N/A   Scattered Clouds
12:00 PM 84.2 °F 90.9 °F 73.4 °F 70% 29.95 in 6.2 mi NNE 8.1 mph - N/A   Scattered Clouds
1:00 PM 82.4 °F 88.2 °F 73.4 °F 74% 29.92 in 6.2 mi NNE 8.1 mph - N/A Rain Light Rain Showers
2:00 PM 82.4 °F 88.2 °F 73.4 °F 74% 29.92 in 6.2 mi NNE 6.9 mph - N/A   Scattered Clouds
4:00 PM 84.2 °F 90.9 °F 73.4 °F 70% 29.89 in 6.2 mi NNE 9.2 mph - N/A   Mostly Cloudy
5:00 PM 80.6 °F 84.6 °F 71.6 °F 74% 29.89 in 6.2 mi NNE 11.5 mph - N/A   Mostly Cloudy
6:00 PM 78.8 °F - 73.4 °F 83% 29.89 in 6.2 mi ENE 8.1 mph - N/A   Mostly Cloudy
7:00 PM 75.2 °F - 73.4 °F 94% 29.89 in 4.3 mi Calm Calm - N/A Rain , Thunderstorm Light Thunderstorms and Rain
7:40 PM 75.2 °F - 73.4 °F 94% 29.92 in 4.3 mi ESE 13.8 mph - N/A Rain Light Rain
8:00 PM 77.0 °F - 73.4 °F 89% 29.92 in 2.5 mi ESE 12.7 mph - N/A Rain Light Rain
9:00 PM 77.0 °F - 73.4 °F 89% 29.89 in 6.2 mi SW 6.9 mph - N/A   Mostly Cloudy
10:00 PM 77.0 °F - 71.6 °F 83% 29.92 in 6.2 mi East 3.5 mph - N/A   Mostly Cloudy
11:00 PM 77.0 °F - 73.4 °F 89% 29.92 in 6.2 mi ENE 3.5 mph - N/A   Mostly Cloudy